User: anonymous
Location: Unspecified
(0.0000°N, 0.0000°E)
Time: 12:19:45
(UTC+02:00)
Language:

Landsat 4 - Orbit

View from above orbital plane
View from above orbital plane
View from above satellite
View from above satellite

Ground track
Ground track

The orbit data is extracted from the following two-line orbital elements,

1 13367U 82072A   14208.79399149  .00001533  00000-0  97601-4 0  6924
2 13367 098.2075 274.7706 0015432 179.0378 320.2089 15.10407266725343
Epoch (UTC): 27 July 2014 19:03:20
Eccentricity: 0.0015432
inclination: 98.2075°
perigee height: 524 km
apogee height: 545 km
right ascension of ascending node: 274.7706°
argument of perigee: 179.0378°
revolutions per day: 15.10407266
mean anomaly at epoch: 320.2089°
orbit number at epoch: 72534

The dashed part of the orbit path shows where the satellite is in the earth's shadow,  

DLR